When you browse on this site, cookies collect data to enhance your experience and personalize the content and advertising you see.
Visit our Privacy Policy to learn more. By continuing to use the site, you agree to this use of cookies and data.
  • In Hungary
  • List of Countries
  • For 7 days
  • Water Temperature
  • Weather Map
  • News
  • Weather Widgets
  • user-avatar
    Login

    Hourly Weather Cukany

    Today, 17 October, Thursday

    Time Temperature Precipitation Wind Pressure Humidity
    00:00 +9°C° 0 mm 5 mps 747 mmHg 84%
    01:00 +9°C° 0 mm 5 mps 747 mmHg 86%
    02:00 +9°C° 0 mm 5 mps 747 mmHg 88%
    03:00 +9°C° 0 mm 5 mps 746 mmHg 89%
    04:00 +8°C° 0 mm 5 mps 746 mmHg 91%
    05:00 +8°C° 0 mm 5 mps 746 mmHg 92%
    06:00 +9°C° 0 mm 5 mps 746 mmHg 91%
    07:00 +9°C° 0 mm 5 mps 746 mmHg 89%
    08:00 +10°C° 0 mm 5 mps 746 mmHg 87%
    09:00 +13°C° 0 mm 5 mps 746 mmHg 83%
    10:00 +14°C° 0 mm 5 mps 746 mmHg 78%
    11:00 +15°C° 0 mm 5 mps 745 mmHg 73%
    12:00 +16°C° 0 mm 6 mps 745 mmHg 70%
    13:00 +17°C° 0 mm 6 mps 745 mmHg 66%
    14:00 +19°C° 0 mm 6 mps 744 mmHg 62%
    15:00 +16°C° 0 mm 5 mps 744 mmHg 67%
    16:00 +15°C° 0 mm 5 mps 744 mmHg 72%
    17:00 +14°C° 0 mm 4 mps 744 mmHg 77%
    18:00 +13°C° 0 mm 4 mps 744 mmHg 79%
    19:00 +13°C° 0 mm 4 mps 744 mmHg 81%
    20:00 +12°C° 0 mm 4 mps 744 mmHg 82%
    21:00 +12°C° 0 mm 3 mps 744 mmHg 82%
    22:00 +11°C° 0 mm 3 mps 744 mmHg 81%
    23:00 +11°C° 0 mm 3 mps 744 mmHg 81%

    Tomorrow, 18 October, Friday

    Time Temperature Precipitation Wind Pressure Humidity
    00:00 +10°C° 0 mm 3 mps 744 mmHg 83%
    01:00 +10°C° 0 mm 3 mps 744 mmHg 86%
    02:00 +10°C° 0 mm 3 mps 744 mmHg 88%
    03:00 +9°C° 0 mm 2 mps 744 mmHg 89%
    04:00 +9°C° 0 mm 2 mps 744 mmHg 90%
    05:00 +9°C° 0 mm 2 mps 744 mmHg 91%
    06:00 +9°C° 0 mm 3 mps 744 mmHg 88%
    07:00 +10°C° 0 mm 3 mps 744 mmHg 86%
    08:00 +10°C° 0 mm 3 mps 744 mmHg 83%
    09:00 +12°C° 0 mm 3 mps 745 mmHg 79%
    10:00 +13°C° 0 mm 3 mps 745 mmHg 74%
    11:00 +14°C° 0 mm 3 mps 745 mmHg 69%
    12:00 +16°C° 0 mm 3 mps 745 mmHg 68%
    13:00 +16°C° 0 mm 3 mps 745 mmHg 67%
    14:00 +16°C° 0 mm 3 mps 745 mmHg 66%
    15:00 +15°C° 0 mm 2 mps 745 mmHg 71%
    16:00 +14°C° 0 mm 2 mps 745 mmHg 75%
    17:00 +13°C° 0 mm 1 mps 745 mmHg 80%
    18:00 +13°C° 0 mm 1 mps 745 mmHg 82%
    19:00 +12°C° 0 mm 1 mps 745 mmHg 85%
    20:00 +12°C° 0 mm 1 mps 745 mmHg 87%
    21:00 +11°C° 0 mm 1 mps 746 mmHg 88%
    22:00 +10°C° 0 mm 0 mps 746 mmHg 89%
    23:00 +10°C° 0 mm 0 mps 746 mmHg 90%

    Day after tomorrow, 19 October, Saturday

    Time Temperature Precipitation Wind Pressure Humidity
    00:00 +10°C° 0 mm 0 mps 746 mmHg 90%
    01:00 +9°C° 0 mm 0 mps 746 mmHg 91%
    02:00 +9°C° 0 mm 0 mps 746 mmHg 91%
    03:00 +10°C° 0 mm 1 mps 746 mmHg 91%
    04:00 +10°C° 0 mm 1 mps 746 mmHg 91%
    05:00 +10°C° 0 mm 1 mps 746 mmHg 92%
    06:00 +10°C° 0 mm 1 mps 747 mmHg 90%
    07:00 +11°C° 0 mm 1 mps 747 mmHg 88%
    08:00 +11°C° 0 mm 1 mps 747 mmHg 87%
    09:00 +13°C° 0 mm 2 mps 747 mmHg 81%
    10:00 +14°C° 0 mm 2 mps 747 mmHg 75%
    11:00 +15°C° 0 mm 2 mps 747 mmHg 69%
    12:00 +16°C° 0 mm 2 mps 747 mmHg 67%
    13:00 +16°C° 0 mm 2 mps 747 mmHg 65%
    14:00 +17°C° 0 mm 2 mps 747 mmHg 63%
    15:00 +16°C° 0 mm 2 mps 747 mmHg 68%
    16:00 +15°C° 0 mm 2 mps 747 mmHg 73%
    17:00 +13°C° 0 mm 2 mps 747 mmHg 78%
    18:00 +13°C° 0 mm 2 mps 747 mmHg 79%
    19:00 +13°C° 0 mm 2 mps 747 mmHg 80%
    20:00 +12°C° 0 mm 2 mps 747 mmHg 81%
    21:00 +12°C° 0 mm 2 mps 747 mmHg 82%
    22:00 +10°C° 0 mm 2 mps 747 mmHg 82%
    23:00 +10°C° 0 mm 2 mps 747 mmHg 83%

    20 October, Sunday

    Time Temperature Precipitation Wind Pressure Humidity
    00:00 +10°C° 0 mm 2 mps 747 mmHg 83%
    01:00 +10°C° 0 mm 2 mps 748 mmHg 84%
    02:00 +9°C° 0 mm 2 mps 748 mmHg 85%
    03:00 +9°C° 0 mm 2 mps 748 mmHg 86%
    04:00 +9°C° 0 mm 2 mps 748 mmHg 88%
    05:00 +9°C° 0 mm 2 mps 748 mmHg 89%
    06:00 +10°C° 0 mm 2 mps 748 mmHg 87%
    07:00 +10°C° 0 mm 3 mps 748 mmHg 84%
    08:00 +11°C° 0 mm 3 mps 748 mmHg 82%
    09:00 +12°C° 0 mm 3 mps 748 mmHg 77%
    10:00 +14°C° 0 mm 3 mps 748 mmHg 72%
    11:00 +15°C° 0 mm 4 mps 748 mmHg 67%
    12:00 +17°C° 0 mm 4 mps 748 mmHg 65%
    13:00 +17°C° 0 mm 4 mps 748 mmHg 63%
    14:00 +18°C° 0 mm 4 mps 748 mmHg 61%
    15:00 +17°C° 0 mm 4 mps 748 mmHg 66%
    16:00 +14°C° 0 mm 3 mps 748 mmHg 71%
    17:00 +13°C° 0 mm 3 mps 748 mmHg 77%
    18:00 +13°C° 0 mm 3 mps 748 mmHg 78%
    19:00 +12°C° 0 mm 3 mps 748 mmHg 79%
    20:00 +12°C° 0 mm 3 mps 748 mmHg 81%
    21:00 +12°C° 0 mm 3 mps 748 mmHg 81%
    22:00 +11°C° 0 mm 3 mps 748 mmHg 81%
    23:00 +11°C° 0 mm 3 mps 748 mmHg 82%

    21 October, Monday

    Time Temperature Precipitation Wind Pressure Humidity
    00:00 +11°C° 0 mm 3 mps 748 mmHg 82%
    01:00 +11°C° 0 mm 3 mps 748 mmHg 82%
    02:00 +10°C° 0 mm 3 mps 748 mmHg 82%
    03:00 +10°C° 0 mm 3 mps 748 mmHg 83%
    04:00 +10°C° 0 mm 3 mps 747 mmHg 83%
    05:00 +9°C° 0 mm 3 mps 747 mmHg 83%
    06:00 +10°C° 0 mm 3 mps 747 mmHg 80%
    07:00 +11°C° 0 mm 4 mps 747 mmHg 77%
    08:00 +11°C° 0 mm 4 mps 747 mmHg 74%
    09:00 +13°C° 0 mm 4 mps 747 mmHg 69%
    10:00 +14°C° 0 mm 4 mps 747 mmHg 64%
    11:00 +15°C° 0 mm 4 mps 747 mmHg 59%
    12:00 +16°C° 0 mm 5 mps 747 mmHg 58%
    13:00 +16°C° 0 mm 5 mps 747 mmHg 57%
    14:00 +17°C° 0 mm 5 mps 747 mmHg 56%
    15:00 +17°C° 0 mm 4 mps 746 mmHg 62%
    16:00 +14°C° 0 mm 4 mps 746 mmHg 67%
    17:00 +13°C° 0 mm 3 mps 746 mmHg 72%
    18:00 +13°C° 0 mm 4 mps 746 mmHg 73%
    19:00 +13°C° 0 mm 4 mps 746 mmHg 74%
    20:00 +12°C° 0 mm 4 mps 746 mmHg 75%
    21:00 +12°C° 0 mm 4 mps 746 mmHg 76%
    22:00 +12°C° 0 mm 4 mps 745 mmHg 77%
    23:00 +11°C° 0 mm 4 mps 745 mmHg 78%

    22 October, Tuesday

    Time Temperature Precipitation Wind Pressure Humidity
    00:00 +11°C° 0 mm 4 mps 745 mmHg 79%
    01:00 +11°C° 0 mm 4 mps 745 mmHg 79%
    02:00 +11°C° 0 mm 4 mps 745 mmHg 79%
    03:00 +11°C° 0 mm 4 mps 745 mmHg 78%
    04:00 +10°C° 0 mm 4 mps 744 mmHg 78%
    05:00 +9°C° 0 mm 5 mps 744 mmHg 78%
    06:00 +10°C° 0 mm 5 mps 744 mmHg 77%
    07:00 +10°C° 0 mm 5 mps 744 mmHg 75%
    08:00 +11°C° 0 mm 6 mps 743 mmHg 74%
    09:00 +13°C° 0 mm 6 mps 743 mmHg 69%
    10:00 +14°C° 0 mm 6 mps 743 mmHg 64%
    11:00 +16°C° 0 mm 7 mps 743 mmHg 59%
    12:00 +16°C° 0 mm 7 mps 742 mmHg 59%
    13:00 +17°C° 0 mm 7 mps 742 mmHg 59%
    14:00 +17°C° 0 mm 7 mps 741 mmHg 58%
    15:00 +16°C° 0 mm 6 mps 741 mmHg 64%
    16:00 +15°C° 0 mm 6 mps 741 mmHg 69%
    17:00 +14°C° 0 mm 5 mps 741 mmHg 74%
    18:00 +14°C° 0 mm 5 mps 741 mmHg 78%
    19:00 +13°C° 0 mm 5 mps 741 mmHg 81%
    20:00 +13°C° 0 mm 5 mps 741 mmHg 85%
    21:00 +13°C° 0 mm 5 mps 741 mmHg 86%
    22:00 +13°C° 0 mm 5 mps 741 mmHg 86%
    23:00 +13°C° 0 mm 5 mps 741 mmHg 87%
    Show more